sat.trackr.live / text

‹ back to catalog

STARLINK-36277

NORAD 68305 · 2026-057M

PAYLOAD ACTIVE UNKNOWN

§ Identity

Operator
Country
US
Launch date
2026-03-20
Launch site
AFWTR
Launch vehicle
Mass (kg)
RCS (m²)

Purposes: comms

External: N2YO · Heavens-Above · Gunter

§ Orbital elements

Epoch: 2026-09-20T01:52:09.975072Z

Period
93.91 min
Inclination
97.2828°
Eccentricity
0.0000868
Mean motion
15.33464015 rev/d
Perigee alt
464.9 km
Apogee alt
466.1 km
Semi-major
6,843.6 km
B*
5.5620e-4
RAAN
27.4862°
Arg perigee
255.9386°
Mean anomaly
104.1761°
Rev number
2,838

§ Raw data

STARLINK-362771 68305U 26057M   26263.07789323  .00017934  00000+0  55620-3 0  99942 68305  97.2828  27.4862 0000868 255.9386 104.1761 15.33464015 28382

JSON: /api/v1/satellites/68305 · /tle

For live sub-satellite position, see the globe view (requires WebGL).

§ Visibility from observer

Set your observer location to see the next 7 days of passes ≥ 10°. The values pass through the URL so the page stays shareable.

No JS? Fill the form by hand. The geolocation button needs JavaScript.